TimeCDT,TemperatureF,Dew PointF,Humidity,Sea Level PressureIn,VisibilityMPH,Wind Direction,Wind SpeedMPH,Gust SpeedMPH,PrecipitationIn,Events,Conditions,WindDirDegrees,DateUTC
12:15 AM,66.2,66.2,100,30.08,10.0,South,4.6,-,N/A,,Clear,190,2013-08-22 05:15:00
12:35 AM,68.0,66.2,94,30.07,10.0,South,4.6,-,N/A,,Clear,190,2013-08-22 05:35:00
12:55 AM,69.8,64.4,83,30.07,10.0,South,4.6,-,N/A,,Clear,180,2013-08-22 05:55:00
1:15 AM,69.8,64.4,83,30.06,10.0,South,5.8,-,N/A,,Clear,190,2013-08-22 06:15:00
1:35 AM,69.8,64.4,83,30.06,10.0,South,4.6,-,N/A,,Clear,180,2013-08-22 06:35:00
1:55 AM,69.8,66.2,88,30.05,10.0,South,5.8,-,N/A,,Clear,190,2013-08-22 06:55:00
2:15 AM,68.0,66.2,94,30.05,10.0,South,5.8,-,N/A,,Clear,190,2013-08-22 07:15:00
2:35 AM,68.0,64.4,88,30.06,10.0,SSW,3.5,-,N/A,,Clear,200,2013-08-22 07:35:00
2:55 AM,66.2,64.4,94,30.07,10.0,Calm,Calm,-,N/A,,Clear,0,2013-08-22 07:55:00
3:15 AM,66.2,64.4,94,30.07,10.0,SSW,3.5,-,N/A,,Clear,210,2013-08-22 08:15:00
3:35 AM,66.2,64.4,94,30.08,7.0,SW,3.5,-,N/A,,Clear,220,2013-08-22 08:35:00
3:55 AM,64.4,64.4,100,30.08,7.0,North,-9999.0,-,N/A,,Clear,0,2013-08-22 08:55:00
4:15 AM,66.2,64.4,94,30.09,7.0,North,-9999.0,-,N/A,,Clear,0,2013-08-22 09:15:00
4:35 AM,66.2,64.4,94,30.08,7.0,North,-9999.0,-,N/A,,Clear,0,2013-08-22 09:35:00
4:55 AM,64.4,64.4,100,30.07,7.0,North,-9999.0,-,N/A,,Clear,0,2013-08-22 09:55:00
5:15 AM,64.4,64.4,100,30.06,7.0,SSW,3.5,-,N/A,,Clear,200,2013-08-22 10:15:00
5:35 AM,66.2,64.4,94,30.07,7.0,South,3.5,-,N/A,,Clear,180,2013-08-22 10:35:00
5:55 AM,64.4,64.4,100,30.06,7.0,SSW,3.5,-,N/A,,Clear,200,2013-08-22 10:55:00
6:15 AM,64.4,64.4,100,30.07,7.0,South,3.5,-,N/A,,Clear,190,2013-08-22 11:15:00
6:35 AM,64.4,64.4,100,30.07,5.0,SSW,4.6,-,N/A,,Clear,200,2013-08-22 11:35:00
6:55 AM,64.4,64.4,100,30.08,5.0,SSW,4.6,-,N/A,,Clear,200,2013-08-22 11:55:00
7:15 AM,66.2,66.2,100,30.08,5.0,SW,3.5,-,N/A,,Clear,220,2013-08-22 12:15:00
7:35 AM,69.8,66.2,88,30.08,7.0,SSW,3.5,-,N/A,,Clear,210,2013-08-22 12:35:00
7:55 AM,71.6,68.0,88,30.09,10.0,Calm,Calm,-,N/A,,Clear,0,2013-08-22 12:55:00
8:15 AM,71.6,68.0,88,30.09,10.0,SSW,3.5,-,N/A,,Clear,210,2013-08-22 13:15:00
8:35 AM,75.2,69.8,83,30.10,10.0,SW,3.5,-,N/A,,Clear,230,2013-08-22 13:35:00
8:55 AM,75.2,69.8,83,30.10,10.0,SW,3.5,-,N/A,,Clear,230,2013-08-22 13:55:00
9:15 AM,78.8,68.0,69,30.09,10.0,SW,5.8,-,N/A,,Clear,230,2013-08-22 14:15:00
9:35 AM,80.6,69.8,70,30.09,10.0,SW,5.8,-,N/A,,Clear,230,2013-08-22 14:35:00
9:55 AM,82.4,69.8,66,30.09,10.0,WSW,6.9,-,N/A,,Clear,240,2013-08-22 14:55:00
10:15 AM,82.4,69.8,66,30.09,10.0,WSW,5.8,-,N/A,,Clear,250,2013-08-22 15:15:00
10:35 AM,84.2,69.8,62,30.09,10.0,West,5.8,-,N/A,,Clear,260,2013-08-22 15:35:00
10:55 AM,84.2,69.8,62,30.09,10.0,West,5.8,-,N/A,,Clear,280,2013-08-22 15:55:00
11:15 AM,86.0,71.6,62,30.09,10.0,WNW,3.5,-,N/A,,Clear,290,2013-08-22 16:15:00
11:35 AM,86.0,71.6,62,30.08,10.0,Calm,Calm,-,N/A,,Clear,0,2013-08-22 16:35:00
11:55 AM,86.0,69.8,58,30.08,10.0,NNW,3.5,-,N/A,,Clear,330,2013-08-22 16:55:00
12:15 PM,87.8,71.6,58,30.08,10.0,Calm,Calm,-,N/A,,Clear,0,2013-08-22 17:15:00
12:35 PM,87.8,69.8,55,30.08,10.0,Calm,Calm,-,N/A,,Clear,0,2013-08-22 17:35:00
12:55 PM,89.6,69.8,52,30.07,10.0,Calm,Calm,-,N/A,,Clear,0,2013-08-22 17:55:00
1:15 PM,87.8,69.8,55,30.07,10.0,North,4.6,-,N/A,,Clear,360,2013-08-22 18:15:00
1:35 PM,87.8,69.8,55,30.07,-9999.0,Calm,Calm,-,0.10,,Clear,0,2013-08-22 18:35:00
1:55 PM,91.4,71.6,52,30.07,10.0,North,3.5,-,0.01,Rain,Light Rain,10,2013-08-22 18:55:00
2:15 PM,89.6,73.4,59,30.07,10.0,Calm,Calm,-,N/A,,Light Drizzle,0,2013-08-22 19:15:00
2:35 PM,89.6,71.6,55,30.06,10.0,Calm,Calm,-,N/A,,Clear,0,2013-08-22 19:35:00
2:55 PM,89.6,71.6,55,30.05,10.0,NE,5.8,-,N/A,,Scattered Clouds,40,2013-08-22 19:55:00
3:15 PM,89.6,73.4,59,30.05,10.0,NNE,4.6,-,N/A,,Clear,20,2013-08-22 20:15:00
3:35 PM,89.6,73.4,59,30.04,10.0,ENE,4.6,-,N/A,Thunderstorm,Thunderstorm,70,2013-08-22 20:35:00
3:55 PM,87.8,71.6,58,30.05,10.0,Calm,Calm,-,N/A,Thunderstorm,Scattered Clouds,0,2013-08-22 20:55:00
4:15 PM,75.2,69.8,83,30.07,7.0,NE,16.1,21.9,N/A,Rain-Thunderstorm,Rain,40,2013-08-22 21:15:00
4:35 PM,75.2,71.6,89,30.06,10.0,ENE,11.5,-,0.01,Rain,Light Rain,60,2013-08-22 21:35:00
4:55 PM,78.8,69.8,74,30.05,10.0,ENE,13.8,-,N/A,,Clear,70,2013-08-22 21:55:00
5:15 PM,78.8,69.8,74,30.03,10.0,ENE,11.5,-,N/A,,Clear,70,2013-08-22 22:15:00
5:35 PM,80.6,68.0,65,30.05,10.0,ENE,8.1,-,N/A,,Clear,70,2013-08-22 22:35:00
5:55 PM,78.8,68.0,69,30.05,10.0,East,10.4,-,N/A,,Clear,80,2013-08-22 22:55:00
6:15 PM,78.8,68.0,69,30.04,10.0,East,9.2,-,N/A,,Clear,90,2013-08-22 23:15:00
6:35 PM,78.8,69.8,74,30.04,10.0,East,6.9,-,N/A,,Clear,80,2013-08-22 23:35:00
6:55 PM,78.8,69.8,74,30.04,10.0,East,3.5,-,N/A,,Clear,90,2013-08-22 23:55:00
7:35 PM,75.2,69.8,83,30.04,10.0,East,3.5,-,N/A,,Clear,100,2013-08-23 00:35:00
7:55 PM,75.2,69.8,83,30.04,10.0,ESE,4.6,-,N/A,,Clear,110,2013-08-23 00:55:00
8:15 PM,75.2,69.8,83,30.04,10.0,ESE,3.5,-,N/A,,Clear,110,2013-08-23 01:15:00
8:35 PM,73.4,69.8,88,30.04,10.0,Calm,Calm,-,N/A,,Clear,0,2013-08-23 01:35:00
8:55 PM,73.4,69.8,88,30.05,10.0,Calm,Calm,-,N/A,,Clear,0,2013-08-23 01:55:00
9:15 PM,73.4,69.8,88,30.05,10.0,Calm,Calm,-,N/A,,Clear,0,2013-08-23 02:15:00
9:35 PM,71.6,69.8,94,30.06,10.0,Calm,Calm,-,N/A,,Clear,0,2013-08-23 02:35:00
9:55 PM,71.6,69.8,94,30.06,10.0,Calm,Calm,-,N/A,,Clear,0,2013-08-23 02:55:00
10:15 PM,69.8,69.8,100,30.06,10.0,Calm,Calm,-,N/A,,Clear,0,2013-08-23 03:15:00
10:35 PM,71.6,69.8,94,30.06,10.0,North,3.5,-,N/A,,Clear,360,2013-08-23 03:35:00
10:55 PM,71.6,69.8,94,30.07,10.0,NNE,4.6,-,N/A,,Clear,30,2013-08-23 03:55:00
11:15 PM,71.6,69.8,94,30.07,10.0,Calm,Calm,-,N/A,,Scattered Clouds,0,2013-08-23 04:15:00
11:35 PM,69.8,69.8,100,30.07,10.0,Calm,Calm,-,N/A,,Scattered Clouds,0,2013-08-23 04:35:00
11:55 PM,71.6,69.8,94,30.08,10.0,North,10.4,-,N/A,,Clear,360,2013-08-23 04:55:00